Lake Meredith Weather Center

Moon Phase Calendar



Lake Meredith Water Level
Online Cameras

 


      

Current Conditions in Fritch
9/17/2021 8:42:50 AM

69°F
Feels Like 70
Clear
Humidity
75%
Pressure
29.83"
Wind
2 mph (SW)
Dew Point
61°F
UV Index
1/10 (Low)
Visibility
6 mi

Hourly Forecast

Date & Time Fri, Sep 17
8:00 AM
Fri, Sep 17
9:00 AM
Fri, Sep 17
10:00 AM
Fri, Sep 17
11:00 AM
Fri, Sep 17
12:00 PM
Fri, Sep 17
1:00 PM
Fri, Sep 17
2:00 PM
Fri, Sep 17
3:00 PM
Fri, Sep 17
4:00 PM
Fri, Sep 17
5:00 PM
Fri, Sep 17
6:00 PM
Fri, Sep 17
7:00 PM
Fri, Sep 17
8:00 PM
Fri, Sep 17
9:00 PM
Fri, Sep 17
10:00 PM
Fri, Sep 17
11:00 PM
Sat, Sep 18
12:00 AM
Sat, Sep 18
1:00 AM
Sat, Sep 18
2:00 AM
Sat, Sep 18
3:00 AM
Sat, Sep 18
4:00 AM
Sat, Sep 18
5:00 AM
Sat, Sep 18
6:00 AM
Sat, Sep 18
7:00 AM
Sat, Sep 18
8:00 AM
Sat, Sep 18
9:00 AM
Sat, Sep 18
10:00 AM
Sat, Sep 18
11:00 AM
Sat, Sep 18
12:00 PM
Sat, Sep 18
1:00 PM
Sat, Sep 18
2:00 PM
Sat, Sep 18
3:00 PM
Sat, Sep 18
4:00 PM
Sat, Sep 18
5:00 PM
Sat, Sep 18
6:00 PM
Sat, Sep 18
7:00 PM
Sat, Sep 18
8:00 PM
Sat, Sep 18
9:00 PM
Sat, Sep 18
10:00 PM
Sat, Sep 18
11:00 PM
Sun, Sep 19
12:00 AM
Sun, Sep 19
1:00 AM
Sun, Sep 19
2:00 AM
Sun, Sep 19
3:00 AM
Sun, Sep 19
4:00 AM
Sun, Sep 19
5:00 AM
Sun, Sep 19
6:00 AM
Sun, Sep 19
7:00 AM
Condition
Clear

Clear

Clear

Clear

Clear

Clear

Clear

Clear

Clear

Clear

Clear

Clear

Clear

Clouds

Rain

Rain

Clouds

Clouds

Rain

Rain

Clear

Clear

Clear

Clear

Clear

Clear

Clear

Clear

Clear

Clear

Clear

Clear

Clear

Clear

Clear

Clear

Clear

Clear

Clear

Clear

Clear

Clear

Clear

Clear

Clear

Clear

Clear

Clear
Temperature 69°F69°F71°F74°F78°F83°F89°F91°F92°F92°F92°F90°F83°F79°F76°F74°F73°F73°F70°F69°F69°F69°F68°F68°F69°F72°F77°F81°F85°F89°F91°F93°F94°F94°F93°F90°F85°F82°F81°F80°F79°F78°F77°F75°F74°F73°F72°F71°F
Feels Like 69°F70°F71°F74°F78°F82°F86°F87°F88°F89°F89°F87°F82°F79°F76°F74°F73°F73°F70°F70°F69°F69°F68°F68°F69°F72°F77°F82°F85°F88°F89°F91°F91°F91°F90°F88°F83°F81°F80°F80°F79°F77°F76°F75°F73°F72°F71°F70°F
Cloudiness 0%0%0%0%0%0%0%0%0%0%0%0%10%18%22%16%13%11%0%0%0%0%0%0%0%0%0%0%0%0%0%0%0%0%0%0%0%0%0%0%0%0%0%0%0%0%0%0%
Visibility 6 mi6 mi6 mi6 mi6 mi6 mi6 mi6 mi6 mi6 mi6 mi6 mi6 mi6 mi6 mi6 mi6 mi6 mi6 mi6 mi6 mi6 mi6 mi6 mi6 mi6 mi6 mi6 mi6 mi6 mi6 mi6 mi6 mi6 mi6 mi6 mi6 mi6 mi6 mi6 mi6 mi6 mi6 mi6 mi6 mi6 mi6 mi6 mi
Precipitation 0%0%0%0%0%0%0%0%0%0%0%0%18%35%45%39%35%39%55%78%80%74%67%62%0%0%0%0%0%0%0%0%0%0%0%0%0%0%0%0%0%0%0%0%0%0%0%0%
Humidity 73%75%69%59%48%36%24%23%23%23%24%27%37%46%56%61%61%63%70%73%75%74%75%75%74%65%56%48%41%36%31%27%25%24%24%28%34%38%41%43%45%46%47%49%52%52%52%54%
Dew Point 60°F61°F60°F59°F57°F53°F47°F47°F48°F49°F49°F51°F53°F55°F58°F59°F59°F59°F59°F60°F60°F59°F59°F59°F59°F59°F59°F59°F59°F58°F56°F54°F52°F51°F51°F52°F53°F54°F54°F55°F55°F55°F54°F54°F54°F54°F53°F53°F
Pressure 29.83"29.83"29.85"29.85"29.88"29.88"29.88"29.88"29.85"29.85"29.85"29.88"29.91"29.97"30"30.03"30.03"30.03"30.06"30.09"30.06"30.06"30.06"30.09"30.09"30.09"30.09"30.06"30.03"30"29.97"29.94"29.91"29.88"29.85"29.85"29.88"29.91"29.94"29.94"29.94"29.94"29.94"29.94"29.94"29.91"29.91"29.91"
Wind Speed 14.6 mph14.9 mph12.7 mph8.4 mph11.1 mph9.4 mph7.6 mph6.8 mph5.2 mph4.5 mph3.1 mph2.1 mph5.7 mph11.2 mph7.7 mph2 mph3.6 mph5.2 mph3.1 mph2.3 mph0.4 mph3.9 mph4.2 mph5 mph5.5 mph7.5 mph10.1 mph10.9 mph11.1 mph11 mph11.2 mph12.1 mph13 mph13.9 mph15.4 mph16.3 mph16.1 mph15.8 mph16 mph15.9 mph15.5 mph14.8 mph13.5 mph11.5 mph9.9 mph9.8 mph8.9 mph8.1 mph
Wind
Direction
178°
S
187°
S
218°
SW
284°
WNW
326°
NW
353°
N
27°
NNE
45°
NE
30°
NNE
20°
NNE
20°
NNE
12°
NNE
343°
NNW
352°
N

N
45°
NE
170°
S
194°
SSW
71°
ENE
115°
ESE
190°
S
199°
SSW
188°
S
185°
S
194°
SSW
200°
SSW
202°
SSW
202°
SSW
197°
SSW
189°
S
181°
S
176°
S
174°
S
169°
S
164°
SSE
154°
SSE
150°
SSE
153°
SSE
162°
SSE
163°
SSE
168°
SSE
175°
S
178°
S
185°
S
198°
SSW
201°
SSW
195°
SSW
210°
SSW

Daily Forecast

Date High Low Precip. Humidity
Today
Sep 17

Rain
92 °F
69 °F
45%
36%
Saturday
Sep 18

Rain
94 °F
68 °F
80%
36%
Sunday
Sep 19

Clear
98 °F
71 °F
4%
24%
Monday
Sep 20

Rain
99 °F
74 °F
30%
16%
Tuesday
Sep 21

Clouds
79 °F
59 °F
0%
18%
Wednesday
Sep 22

Clear
85 °F
57 °F
0%
19%
Thursday
Sep 23

Clouds
93 °F
64 °F
0%
24%
Friday
Sep 24

Rain
80 °F
64 °F
37%
33%
Saturday
Sep 25

Clear
81 °F
61 °F
0%
19%
Sunday
Sep 26

Clear
81 °F
52 °F
0%
15%
Monday
Sep 27

Clear
95 °F
58 °F
0%
21%
Tuesday
Sep 28

Clear
99 °F
71 °F
5%
15%
Wednesday
Sep 29

Rain
92 °F
69 °F
53%
15%
Thursday
Sep 30

Clear
88 °F
65 °F
0%
17%
Friday
Oct 1

Clear
90 °F
61 °F
0%
15%
Saturday
Oct 2

Clouds
92 °F
65 °F
0%
18%

Temperature 8-14 Day Outlook



Precipitation 8-14 Day Outlook




Quick Links
Lake Meredith News
Lake Meredith Photos
Lake Meredith Videos




About Us
Contact Us
Site Map
Search Site
Advertise With Us
   
Meredith.USLakes.info
THE LAKE MEREDITH WEBSITE

Copyright 2021, Lakes Online
Privacy    |    Legal